Time,TemperatureF,DewpointF,PressureIn,WindDirection,WindDirectionDegrees,WindSpeedMPH,WindSpeedGustMPH,Humidity,HourlyPrecipIn,Conditions,Clouds,dailyrainin,SoftwareType,DateUTC
2013-12-17 00:00:00,14.2,9.2,29.00,SE,125,0.0,0.0,80,0.00,,,0.00,VWS V14.00,2013-12-17 05:00:00,
2013-12-17 00:01:00,14.2,9.2,29.00,SE,125,0.0,0.0,80,0.00,,,0.00,VWS V14.00,2013-12-17 05:01:00,
2013-12-17 00:06:00,14.2,9.2,29.00,SE,125,0.0,0.0,80,0.00,,,0.00,VWS V14.00,2013-12-17 05:06:00,
2013-12-17 00:11:00,14.4,9.3,29.00,SE,125,0.0,0.0,80,0.00,,,0.00,VWS V14.00,2013-12-17 05:11:00,
2013-12-17 00:17:00,14.4,9.3,29.00,SE,125,0.0,0.0,80,0.00,,,0.00,VWS V14.00,2013-12-17 05:17:00,
2013-12-17 00:22:00,14.4,9.3,29.00,SE,125,0.0,0.0,80,0.00,,,0.00,VWS V14.00,2013-12-17 05:22:00,
2013-12-17 00:27:00,14.4,9.3,29.00,SE,125,0.0,0.0,80,0.00,,,0.00,VWS V14.00,2013-12-17 05:27:00,
2013-12-17 00:30:00,14.5,9.5,29.00,SE,125,0.0,0.0,80,0.00,,,0.00,VWS V14.00,2013-12-17 05:30:00,
2013-12-17 00:32:00,14.5,9.5,29.00,SE,125,0.0,0.0,80,0.00,,,0.00,VWS V14.00,2013-12-17 05:32:00,
2013-12-17 00:37:00,14.5,9.5,29.00,SE,125,0.0,0.0,80,0.00,,,0.00,VWS V14.00,2013-12-17 05:37:00,
2013-12-17 00:42:00,14.5,9.5,29.00,SE,125,0.0,0.0,80,0.00,,,0.00,VWS V14.00,2013-12-17 05:42:00,
2013-12-17 00:47:00,14.5,9.5,29.00,SE,125,0.0,0.0,80,0.00,,,0.00,VWS V14.00,2013-12-17 05:47:00,
2013-12-17 00:52:00,14.5,9.5,29.00,SE,125,0.0,0.0,80,0.00,,,0.00,VWS V14.00,2013-12-17 05:52:00,
2013-12-17 00:57:00,14.5,9.8,29.00,SE,125,0.0,0.0,81,0.00,,,0.00,VWS V14.00,2013-12-17 05:57:00,
2013-12-17 01:00:00,14.5,9.8,29.00,SE,125,0.0,0.0,81,0.00,,,0.00,VWS V14.00,2013-12-17 06:00:00,
2013-12-17 01:02:00,14.5,9.8,29.00,SE,125,0.0,0.0,81,0.00,,,0.00,VWS V14.00,2013-12-17 06:02:00,
2013-12-17 01:07:00,14.5,9.5,29.00,SE,125,0.0,0.0,80,0.00,,,0.00,VWS V14.00,2013-12-17 06:07:00,
2013-12-17 01:13:00,14.5,9.8,29.00,SE,125,0.0,0.0,81,0.00,,,0.00,VWS V14.00,2013-12-17 06:13:00,
2013-12-17 01:18:00,14.5,9.8,29.00,SE,125,0.0,0.0,81,0.00,,,0.00,VWS V14.00,2013-12-17 06:18:00,
2013-12-17 01:23:00,14.5,9.8,29.00,SE,125,0.0,0.0,81,0.00,,,0.00,VWS V14.00,2013-12-17 06:23:00,
2013-12-17 01:28:00,14.5,9.5,29.00,SE,125,0.0,0.0,80,0.00,,,0.00,VWS V14.00,2013-12-17 06:28:00,
2013-12-17 01:30:00,14.5,9.5,29.00,SE,125,0.0,0.0,80,0.00,,,0.00,VWS V14.00,2013-12-17 06:30:00,
2013-12-17 01:33:00,14.5,9.5,29.00,SE,125,0.0,0.0,80,0.00,,,0.00,VWS V14.00,2013-12-17 06:33:00,
2013-12-17 01:38:00,14.5,9.5,29.00,SE,125,0.0,0.0,80,0.00,,,0.00,VWS V14.00,2013-12-17 06:38:00,
2013-12-17 01:43:00,14.5,9.5,29.00,SE,125,0.0,0.0,80,0.00,,,0.00,VWS V14.00,2013-12-17 06:43:00,
2013-12-17 01:48:00,14.5,9.5,29.00,SE,125,0.0,0.0,80,0.00,,,0.00,VWS V14.00,2013-12-17 06:48:00,
2013-12-17 01:53:00,14.5,9.5,29.00,SE,125,0.0,0.0,80,0.00,,,0.00,VWS V14.00,2013-12-17 06:53:00,
2013-12-17 01:58:00,14.5,9.5,29.00,SE,125,0.0,0.0,80,0.00,,,0.00,VWS V14.00,2013-12-17 06:58:00,
2013-12-17 02:00:00,14.5,9.5,28.97,SE,125,0.0,0.0,80,0.00,,,0.00,VWS V14.00,2013-12-17 07:00:00,
2013-12-17 02:03:00,14.5,9.5,28.97,SE,125,0.0,0.0,80,0.00,,,0.00,VWS V14.00,2013-12-17 07:03:00,
2013-12-17 02:08:00,14.5,9.5,28.97,SE,125,0.0,0.0,80,0.00,,,0.00,VWS V14.00,2013-12-17 07:08:00,
2013-12-17 02:13:00,14.5,9.5,28.97,SE,125,0.0,0.0,80,0.00,,,0.00,VWS V14.00,2013-12-17 07:13:00,
2013-12-17 02:18:00,14.5,9.5,28.97,SE,125,0.0,0.0,80,0.00,,,0.00,VWS V14.00,2013-12-17 07:18:00,
2013-12-17 02:23:00,14.4,9.3,28.97,SE,125,0.0,0.0,80,0.00,,,0.00,VWS V14.00,2013-12-17 07:23:00,
2013-12-17 02:28:00,14.2,9.2,28.97,SE,125,0.0,0.0,80,0.00,,,0.00,VWS V14.00,2013-12-17 07:28:00,
2013-12-17 02:30:00,14.2,9.2,28.97,SE,125,0.0,0.0,80,0.00,,,0.00,VWS V14.00,2013-12-17 07:30:00,
2013-12-17 02:33:00,14.0,9.0,28.97,SE,125,0.0,0.0,80,0.00,,,0.00,VWS V14.00,2013-12-17 07:33:00,
2013-12-17 02:38:00,13.8,8.8,28.97,SE,125,0.0,0.0,80,0.00,,,0.00,VWS V14.00,2013-12-17 07:38:00,
2013-12-17 02:43:00,13.3,8.3,28.97,SE,125,0.0,0.0,80,0.00,,,0.00,VWS V14.00,2013-12-17 07:43:00,
2013-12-17 02:48:00,12.9,7.9,28.97,SE,125,0.0,0.0,80,0.00,,,0.00,VWS V14.00,2013-12-17 07:48:00,
2013-12-17 02:53:00,12.7,7.8,28.97,SE,125,0.0,0.0,80,0.00,,,0.00,VWS V14.00,2013-12-17 07:53:00,
2013-12-17 02:58:00,12.7,7.8,28.97,SE,125,0.0,0.0,80,0.00,,,0.00,VWS V14.00,2013-12-17 07:58:00,
2013-12-17 03:00:00,12.7,7.8,28.97,SE,125,0.0,0.0,80,0.00,,,0.00,VWS V14.00,2013-12-17 08:00:00,
2013-12-17 03:03:00,12.4,7.4,28.97,SE,125,0.0,0.0,80,0.00,,,0.00,VWS V14.00,2013-12-17 08:03:00,
2013-12-17 03:08:00,12.2,7.2,28.97,SE,125,0.0,0.0,80,0.00,,,0.00,VWS V14.00,2013-12-17 08:08:00,
2013-12-17 03:13:00,11.8,6.9,28.97,SE,125,0.0,0.0,80,0.00,,,0.00,VWS V14.00,2013-12-17 08:13:00,
2013-12-17 03:18:00,11.7,6.7,28.97,SE,125,0.0,0.0,80,0.00,,,0.00,VWS V14.00,2013-12-17 08:18:00,
2013-12-17 03:23:00,11.7,6.7,28.97,SE,125,0.0,0.0,80,0.00,,,0.00,VWS V14.00,2013-12-17 08:23:00,
2013-12-17 03:28:00,11.3,6.3,28.97,SE,125,0.0,0.0,80,0.00,,,0.00,VWS V14.00,2013-12-17 08:28:00,
2013-12-17 03:30:00,11.3,6.3,28.97,SE,125,0.0,0.0,80,0.00,,,0.00,VWS V14.00,2013-12-17 08:30:00,
2013-12-17 03:33:00,11.1,6.2,28.97,SE,125,0.0,0.0,80,0.00,,,0.00,VWS V14.00,2013-12-17 08:33:00,
2013-12-17 03:38:00,11.3,6.3,28.97,SE,125,0.0,0.0,80,0.00,,,0.00,VWS V14.00,2013-12-17 08:38:00,
2013-12-17 03:43:00,11.3,6.3,28.97,SE,125,0.0,0.0,80,0.00,,,0.00,VWS V14.00,2013-12-17 08:43:00,
2013-12-17 03:48:00,11.3,6.3,28.97,SE,125,0.0,0.0,80,0.00,,,0.00,VWS V14.00,2013-12-17 08:48:00,
2013-12-17 03:53:00,11.3,6.3,28.97,SE,125,0.0,0.0,80,0.00,,,0.00,VWS V14.00,2013-12-17 08:53:00,
2013-12-17 03:58:00,11.5,6.5,28.97,SE,125,0.0,0.0,80,0.00,,,0.00,VWS V14.00,2013-12-17 08:58:00,
2013-12-17 04:00:00,11.5,6.5,28.97,SE,125,0.0,0.0,80,0.00,,,0.00,VWS V14.00,2013-12-17 09:00:00,
2013-12-17 04:03:00,11.7,6.7,28.97,SE,125,0.0,0.0,80,0.00,,,0.00,VWS V14.00,2013-12-17 09:03:00,
2013-12-17 04:08:00,11.8,6.9,28.97,SE,125,0.0,0.0,80,0.00,,,0.00,VWS V14.00,2013-12-17 09:08:00,
2013-12-17 04:13:00,12.0,7.1,28.97,SE,125,0.0,0.0,80,0.00,,,0.00,VWS V14.00,2013-12-17 09:13:00,
2013-12-17 04:18:00,12.0,7.1,28.97,SE,125,0.0,0.0,80,0.00,,,0.00,VWS V14.00,2013-12-17 09:18:00,
2013-12-17 04:23:00,12.2,7.2,28.97,SE,125,0.0,0.0,80,0.00,,,0.00,VWS V14.00,2013-12-17 09:23:00,
2013-12-17 04:28:00,12.4,7.4,28.97,SE,125,0.0,0.0,80,0.00,,,0.00,VWS V14.00,2013-12-17 09:28:00,
2013-12-17 04:30:00,12.4,7.4,28.97,SE,125,0.0,0.0,80,0.00,,,0.00,VWS V14.00,2013-12-17 09:30:00,
2013-12-17 04:33:00,12.6,7.6,28.97,SE,125,0.0,0.0,80,0.00,,,0.00,VWS V14.00,2013-12-17 09:33:00,
2013-12-17 04:38:00,12.6,7.6,28.97,SE,125,0.0,0.0,80,0.00,,,0.00,VWS V14.00,2013-12-17 09:38:00,
2013-12-17 04:43:00,12.7,7.8,28.97,SE,125,0.0,0.0,80,0.00,,,0.00,VWS V14.00,2013-12-17 09:43:00,
2013-12-17 04:48:00,12.9,7.9,28.97,SE,125,0.0,0.0,80,0.00,,,0.00,VWS V14.00,2013-12-17 09:48:00,
2013-12-17 04:53:00,12.9,7.9,28.97,SE,125,0.0,0.0,80,0.00,,,0.00,VWS V14.00,2013-12-17 09:53:00,
2013-12-17 04:58:00,13.1,8.1,28.97,SE,125,0.0,0.0,80,0.00,,,0.00,VWS V14.00,2013-12-17 09:58:00,
2013-12-17 05:00:00,13.3,8.3,28.97,SE,125,0.0,0.0,80,0.00,,,0.00,VWS V14.00,2013-12-17 10:00:00,
2013-12-17 05:03:00,13.3,8.3,28.97,SE,125,0.0,0.0,80,0.00,,,0.00,VWS V14.00,2013-12-17 10:03:00,
2013-12-17 05:08:00,13.5,8.4,28.97,SE,125,0.0,0.0,80,0.00,,,0.00,VWS V14.00,2013-12-17 10:08:00,
2013-12-17 05:13:00,13.6,8.6,28.97,SE,125,0.0,0.0,80,0.00,,,0.00,VWS V14.00,2013-12-17 10:13:00,
2013-12-17 05:18:00,13.8,8.8,28.94,SE,125,0.0,0.0,80,0.00,,,0.00,VWS V14.00,2013-12-17 10:18:00,
2013-12-17 05:23:00,13.8,8.8,28.94,SE,125,0.0,0.0,80,0.00,,,0.00,VWS V14.00,2013-12-17 10:23:00,
2013-12-17 05:28:00,14.0,9.8,28.94,SE,125,0.0,0.0,83,0.00,,,0.00,VWS V14.00,2013-12-17 10:28:00,
2013-12-17 05:30:00,14.0,9.8,28.94,SE,125,0.0,0.0,83,0.00,,,0.00,VWS V14.00,2013-12-17 10:30:00,
2013-12-17 05:33:00,14.2,10.0,28.94,SE,125,0.0,0.0,83,0.00,,,0.00,VWS V14.00,2013-12-17 10:33:00,
2013-12-17 05:38:00,14.4,10.1,28.94,SE,125,0.0,0.0,83,0.00,,,0.00,VWS V14.00,2013-12-17 10:38:00,
2013-12-17 05:43:00,14.4,10.1,28.94,SE,125,0.0,0.0,83,0.00,,,0.00,VWS V14.00,2013-12-17 10:43:00,
2013-12-17 05:49:00,14.5,10.3,28.94,SE,125,0.0,0.0,83,0.00,,,0.00,VWS V14.00,2013-12-17 10:49:00,
2013-12-17 05:54:00,14.7,10.5,28.94,SE,125,0.0,0.0,83,0.00,,,0.00,VWS V14.00,2013-12-17 10:54:00,
2013-12-17 05:59:00,14.9,10.7,28.94,SE,125,0.0,0.0,83,0.00,,,0.00,VWS V14.00,2013-12-17 10:59:00,
2013-12-17 06:00:00,14.9,10.7,28.97,SE,125,0.0,0.0,83,0.00,,,0.00,VWS V14.00,2013-12-17 11:00:00,
2013-12-17 06:04:00,15.1,10.9,28.97,SE,125,0.0,0.0,83,0.00,,,0.00,VWS V14.00,2013-12-17 11:04:00,
2013-12-17 06:09:00,15.1,11.1,28.97,SE,125,0.0,0.0,84,0.00,,,0.00,VWS V14.00,2013-12-17 11:09:00,
2013-12-17 06:14:00,15.3,11.3,28.97,SE,125,0.0,0.0,84,0.00,,,0.00,VWS V14.00,2013-12-17 11:14:00,
2013-12-17 06:19:00,15.4,11.5,28.97,SE,125,0.0,0.0,84,0.00,,,0.00,VWS V14.00,2013-12-17 11:19:00,
2013-12-17 06:24:00,15.4,11.5,28.97,SE,125,0.0,0.0,84,0.00,,,0.00,VWS V14.00,2013-12-17 11:24:00,
2013-12-17 06:29:00,15.8,11.8,28.97,SE,125,0.0,3.6,84,0.00,,,0.00,VWS V14.00,2013-12-17 11:29:00,
2013-12-17 06:30:00,15.8,12.1,28.97,SE,125,3.1,3.6,85,0.00,,,0.00,VWS V14.00,2013-12-17 11:30:00,
2013-12-17 06:34:00,16.2,12.4,28.97,West,278,0.0,5.4,85,0.00,,,0.00,VWS V14.00,2013-12-17 11:34:00,
2013-12-17 06:39:00,16.5,12.8,28.97,WSW,247,0.0,5.4,85,0.00,,,0.00,VWS V14.00,2013-12-17 11:39:00,
2013-12-17 06:44:00,16.7,13.2,28.97,WSW,248,0.0,5.4,86,0.00,,,0.00,VWS V14.00,2013-12-17 11:44:00,
2013-12-17 06:49:00,16.9,13.4,28.97,WSW,244,3.6,5.8,86,0.00,,,0.00,VWS V14.00,2013-12-17 11:49:00,
2013-12-17 06:54:00,16.9,13.4,28.97,SW,232,0.0,5.8,86,0.00,,,0.00,VWS V14.00,2013-12-17 11:54:00,
2013-12-17 06:59:00,16.9,13.4,28.97,SSW,198,0.0,5.8,86,0.00,,,0.00,VWS V14.00,2013-12-17 11:59:00,
2013-12-17 07:00:00,16.9,13.4,28.97,SSW,198,0.0,5.8,86,0.00,,,0.00,VWS V14.00,2013-12-17 12:00:00,
2013-12-17 07:04:00,16.9,13.4,28.97,South,189,0.0,3.1,86,0.00,,,0.00,VWS V14.00,2013-12-17 12:04:00,
2013-12-17 07:09:00,16.9,13.4,28.97,South,189,0.0,3.1,86,0.00,,,0.00,VWS V14.00,2013-12-17 12:09:00,
2013-12-17 07:14:00,16.9,13.2,28.97,SW,216,0.0,3.1,85,0.00,,,0.00,VWS V14.00,2013-12-17 12:14:00,
2013-12-17 07:19:00,17.1,13.3,28.97,SW,216,0.0,3.1,85,0.00,,,0.00,VWS V14.00,2013-12-17 12:19:00,
2013-12-17 07:24:00,17.1,13.3,28.97,SW,216,0.0,3.1,85,0.00,,,0.00,VWS V14.00,2013-12-17 12:24:00,
2013-12-17 07:29:00,17.1,13.3,28.97,SW,216,0.0,3.1,85,0.00,,,0.00,VWS V14.00,2013-12-17 12:29:00,
2013-12-17 07:30:00,17.1,13.3,28.97,SW,216,0.0,3.1,85,0.00,,,0.00,VWS V14.00,2013-12-17 12:30:00,
2013-12-17 07:34:00,17.2,13.5,28.97,SW,216,0.0,0.0,85,0.00,,,0.00,VWS V14.00,2013-12-17 12:34:00,
2013-12-17 07:39:00,17.4,13.7,28.97,SW,216,0.0,0.0,85,0.00,,,0.00,VWS V14.00,2013-12-17 12:39:00,
2013-12-17 07:44:00,17.4,13.7,28.97,SW,216,0.0,0.0,85,0.00,,,0.00,VWS V14.00,2013-12-17 12:44:00,
2013-12-17 07:49:00,17.4,13.7,28.97,SW,216,0.0,0.0,85,0.00,,,0.00,VWS V14.00,2013-12-17 12:49:00,
2013-12-17 07:54:00,17.6,14.1,28.97,SW,216,0.0,0.0,86,0.00,,,0.00,VWS V14.00,2013-12-17 12:54:00,
2013-12-17 07:59:00,17.8,14.0,28.97,South,188,0.0,4.9,85,0.00,,,0.00,VWS V14.00,2013-12-17 12:59:00,
2013-12-17 08:00:00,17.8,14.1,29.00,South,188,0.0,4.9,85,0.00,,,0.00,VWS V14.00,2013-12-17 13:00:00,
2013-12-17 08:04:00,17.8,14.0,29.00,South,188,0.0,4.0,85,0.00,,,0.00,VWS V14.00,2013-12-17 13:04:00,
2013-12-17 08:09:00,18.1,14.7,29.00,South,188,0.0,4.0,86,0.00,,,0.00,VWS V14.00,2013-12-17 13:09:00,
2013-12-17 08:14:00,18.3,14.8,29.00,South,189,4.0,4.0,86,0.00,,,0.00,VWS V14.00,2013-12-17 13:14:00,
2013-12-17 08:19:00,18.5,15.0,29.00,SW,217,0.0,4.0,86,0.00,,,0.00,VWS V14.00,2013-12-17 13:19:00,
2013-12-17 08:24:00,18.7,15.2,29.00,SW,217,4.0,4.0,86,0.00,,,0.00,VWS V14.00,2013-12-17 13:24:00,
2013-12-17 08:29:00,18.7,15.2,29.00,SW,217,0.0,4.0,86,0.00,,,0.00,VWS V14.00,2013-12-17 13:29:00,
2013-12-17 08:30:00,18.7,15.2,29.00,SW,217,0.0,4.0,86,0.00,,,0.00,VWS V14.00,2013-12-17 13:30:00,
2013-12-17 08:34:00,19.0,15.8,28.97,SW,231,4.5,4.5,87,0.00,,,0.00,VWS V14.00,2013-12-17 13:34:00,
2013-12-17 08:39:00,19.2,16.0,28.97,SSW,194,3.1,5.4,87,0.00,,,0.00,VWS V14.00,2013-12-17 13:39:00,
2013-12-17 08:44:00,19.4,16.2,28.97,SSW,198,0.0,5.4,87,0.00,,,0.00,VWS V14.00,2013-12-17 13:44:00,
2013-12-17 08:49:00,19.6,16.4,28.97,South,176,3.6,5.4,87,0.00,,,0.00,VWS V14.00,2013-12-17 13:49:00,
2013-12-17 08:54:00,19.9,16.7,28.97,SSW,206,0.0,5.4,87,0.00,,,0.00,VWS V14.00,2013-12-17 13:54:00,
2013-12-17 08:59:00,20.1,16.9,28.97,SSW,206,0.0,5.4,87,0.00,,,0.00,VWS V14.00,2013-12-17 13:59:00,
2013-12-17 09:00:00,20.3,17.1,28.97,WSW,240,0.0,5.4,87,0.00,,,0.00,VWS V14.00,2013-12-17 14:00:00,
2013-12-17 09:04:00,20.5,17.2,28.97,SSW,200,3.6,4.9,87,0.00,,,0.00,VWS V14.00,2013-12-17 14:04:00,
2013-12-17 09:09:00,21.0,17.8,28.97,SSW,209,4.9,6.3,87,0.00,,,0.00,VWS V14.00,2013-12-17 14:09:00,
2013-12-17 09:14:00,21.4,18.1,28.97,South,180,3.6,6.3,87,0.00,,,0.00,VWS V14.00,2013-12-17 14:14:00,
2013-12-17 09:19:00,21.9,18.6,28.97,SW,220,4.0,6.3,87,0.00,,,0.00,VWS V14.00,2013-12-17 14:19:00,
2013-12-17 09:24:00,21.9,18.4,28.97,SSW,210,3.6,6.3,86,0.00,,,0.00,VWS V14.00,2013-12-17 14:24:00,
2013-12-17 09:29:00,21.9,18.4,28.97,WSW,249,3.6,8.7,86,0.00,,,0.00,VWS V14.00,2013-12-17 14:29:00,
2013-12-17 09:30:00,21.9,18.4,29.00,WSW,241,4.0,8.7,86,0.00,,,0.00,VWS V14.00,2013-12-17 14:30:00,
2013-12-17 09:32:00,22.3,18.7,29.00,South,182,2.2,4.9,86,0.00,,,0.00,VWS V14.00,2013-12-17 14:32:00,
2013-12-17 09:37:00,22.8,19.0,29.00,WSW,258,5.4,11.0,85,0.00,,,0.00,VWS V14.00,2013-12-17 14:37:00,
2013-12-17 09:42:00,22.8,19.0,29.00,WSW,248,3.6,11.0,85,0.00,,,0.00,VWS V14.00,2013-12-17 14:42:00,
2013-12-17 09:47:00,23.2,19.1,28.97,SW,224,0.0,11.0,84,0.00,,,0.00,VWS V14.00,2013-12-17 14:47:00,
2013-12-17 09:52:00,23.9,19.5,28.97,WNW,293,0.0,11.0,83,0.00,,,0.00,VWS V14.00,2013-12-17 14:52:00,
2013-12-17 09:57:00,24.4,20.0,28.97,WNW,286,4.5,11.0,83,0.00,,,0.00,VWS V14.00,2013-12-17 14:57:00,
2013-12-17 10:00:00,24.4,19.7,28.97,SW,229,2.7,11.0,82,0.00,,,0.00,VWS V14.00,2013-12-17 15:00:00,
2013-12-17 10:02:00,24.4,19.7,28.97,SSW,196,2.7,5.4,82,0.00,,,0.00,VWS V14.00,2013-12-17 15:02:00,
2013-12-17 10:07:00,24.3,19.3,28.97,SSW,207,3.1,7.2,81,0.00,,,0.00,VWS V14.00,2013-12-17 15:07:00,
2013-12-17 10:12:00,24.3,19.0,28.97,SW,220,2.7,7.2,80,0.00,,,0.00,VWS V14.00,2013-12-17 15:12:00,
2013-12-17 10:17:00,24.4,19.2,28.97,SSW,209,2.2,7.2,80,0.00,,,0.00,VWS V14.00,2013-12-17 15:17:00,
2013-12-17 10:22:00,24.6,19.3,28.97,SW,218,3.1,7.2,80,0.00,,,0.00,VWS V14.00,2013-12-17 15:22:00,
2013-12-17 10:27:00,25.0,19.4,28.97,SW,219,5.4,7.2,79,0.00,,,0.00,VWS V14.00,2013-12-17 15:27:00,
2013-12-17 10:30:00,25.2,19.6,28.97,SSW,211,3.6,7.2,79,0.00,,,0.00,VWS V14.00,2013-12-17 15:30:00,
2013-12-17 10:32:00,25.5,19.6,28.97,SSW,197,5.4,5.8,78,0.00,,,0.00,VWS V14.00,2013-12-17 15:32:00,
2013-12-17 10:38:00,25.5,19.3,28.97,SSW,198,6.3,6.3,77,0.00,,,0.00,VWS V14.00,2013-12-17 15:38:00,
2013-12-17 10:43:00,25.3,18.9,28.97,SSE,162,7.6,8.7,76,0.00,,,0.00,VWS V14.00,2013-12-17 15:43:00,
2013-12-17 10:48:00,25.2,18.4,28.97,SSE,159,4.9,10.1,75,0.00,,,0.00,VWS V14.00,2013-12-17 15:48:00,
2013-12-17 10:53:00,25.3,18.5,28.97,SSW,198,4.0,10.1,75,0.00,,,0.00,VWS V14.00,2013-12-17 15:53:00,
2013-12-17 10:58:00,26.1,18.9,28.97,SSW,211,5.8,10.1,74,0.00,,,0.00,VWS V14.00,2013-12-17 15:58:00,
2013-12-17 11:00:00,26.1,18.9,28.97,SW,233,3.1,10.1,74,0.00,,,0.00,VWS V14.00,2013-12-17 16:00:00,
2013-12-17 11:03:00,26.1,18.6,28.94,SSW,209,8.7,8.7,73,0.00,,,0.00,VWS V14.00,2013-12-17 16:03:00,
2013-12-17 11:08:00,27.0,19.5,28.94,SSW,206,2.2,10.1,73,0.00,,,0.00,VWS V14.00,2013-12-17 16:08:00,
2013-12-17 11:13:00,27.1,19.3,28.94,South,177,5.4,10.1,72,0.00,,,0.00,VWS V14.00,2013-12-17 16:13:00,
2013-12-17 11:18:00,27.3,18.8,28.94,SSW,199,6.3,10.1,70,0.00,,,0.00,VWS V14.00,2013-12-17 16:18:00,
2013-12-17 11:23:00,28.9,20.4,28.94,South,181,4.0,10.1,70,0.00,,,0.00,VWS V14.00,2013-12-17 16:23:00,
2013-12-17 11:28:00,29.7,20.4,28.94,SSE,157,4.9,10.5,68,0.00,,,0.00,VWS V14.00,2013-12-17 16:28:00,
2013-12-17 11:30:00,29.5,19.9,28.94,SSW,206,4.0,10.5,67,0.00,,,0.00,VWS V14.00,2013-12-17 16:30:00,
2013-12-17 11:33:00,29.5,19.5,28.94,SSW,204,7.6,7.6,66,0.00,,,0.00,VWS V14.00,2013-12-17 16:33:00,
2013-12-17 11:38:00,28.8,18.1,28.94,SSW,192,5.8,12.3,64,0.00,,,0.00,VWS V14.00,2013-12-17 16:38:00,
2013-12-17 11:43:00,30.4,20.0,28.94,South,186,2.7,12.3,65,0.00,,,0.00,VWS V14.00,2013-12-17 16:43:00,
2013-12-17 11:48:00,30.6,18.7,28.91,SSW,197,8.7,12.3,61,0.00,,,0.00,VWS V14.00,2013-12-17 16:48:00,
2013-12-17 11:53:00,30.7,18.5,28.91,SSE,164,5.4,12.3,60,0.00,,,0.00,VWS V14.00,2013-12-17 16:53:00,
2013-12-17 11:58:00,32.5,20.2,28.91,SW,222,3.1,12.3,60,0.00,,,0.00,VWS V14.00,2013-12-17 16:58:00,
2013-12-17 12:00:00,32.0,18.9,28.91,SSE,155,7.6,12.3,58,0.00,,,0.00,VWS V14.00,2013-12-17 17:00:00,
2013-12-17 12:03:00,31.1,17.7,28.91,SSW,206,4.0,10.5,57,0.00,,,0.00,VWS V14.00,2013-12-17 17:03:00,
2013-12-17 12:08:00,30.0,16.6,28.91,SSW,199,8.7,14.1,57,0.00,,,0.00,VWS V14.00,2013-12-17 17:08:00,
2013-12-17 12:13:00,29.7,16.7,28.91,SSW,195,7.2,14.1,58,0.00,,,0.00,VWS V14.00,2013-12-17 17:13:00,
2013-12-17 12:18:00,29.8,16.9,28.91,SSW,192,6.3,14.1,58,0.00,,,0.00,VWS V14.00,2013-12-17 17:18:00,
2013-12-17 12:23:00,30.2,17.2,28.91,SSE,147,5.4,14.1,58,0.00,,,0.00,VWS V14.00,2013-12-17 17:23:00,
2013-12-17 12:28:00,31.3,18.2,28.91,SW,223,4.0,14.1,58,0.00,,,0.00,VWS V14.00,2013-12-17 17:28:00,
2013-12-17 12:30:00,30.7,17.3,28.91,SSW,198,4.0,14.1,57,0.00,,,0.00,VWS V14.00,2013-12-17 17:30:00,
2013-12-17 12:33:00,30.6,17.1,28.91,SW,214,6.3,8.3,57,0.00,,,0.00,VWS V14.00,2013-12-17 17:33:00,
2013-12-17 12:38:00,30.0,17.0,28.91,South,170,6.3,8.3,58,0.00,,,0.00,VWS V14.00,2013-12-17 17:38:00,
2013-12-17 12:43:00,28.9,15.6,28.91,SSW,193,8.3,10.5,57,0.00,,,0.00,VWS V14.00,2013-12-17 17:43:00,
2013-12-17 12:48:00,28.6,15.7,28.91,SW,222,6.3,10.5,58,0.00,,,0.00,VWS V14.00,2013-12-17 17:48:00,
2013-12-17 12:53:00,27.9,15.4,28.91,SSW,205,6.7,10.5,59,0.00,,,0.00,VWS V14.00,2013-12-17 17:53:00,
2013-12-17 12:58:00,27.9,15.8,28.91,SW,223,4.0,10.5,60,0.00,,,0.00,VWS V14.00,2013-12-17 17:58:00,
2013-12-17 13:00:00,27.9,15.8,28.91,SW,232,5.4,10.5,60,0.00,,,0.00,VWS V14.00,2013-12-17 18:00:00,
2013-12-17 13:03:00,27.9,16.2,28.91,WSW,241,3.6,10.5,61,0.00,,,0.00,VWS V14.00,2013-12-17 18:03:00,
2013-12-17 13:08:00,27.5,16.2,28.91,SSW,212,5.4,10.5,62,0.00,,,0.00,VWS V14.00,2013-12-17 18:08:00,
2013-12-17 13:13:00,27.5,16.6,28.91,SSE,166,4.9,10.5,63,0.00,,,0.00,VWS V14.00,2013-12-17 18:13:00,
2013-12-17 13:18:00,27.1,16.2,28.91,SW,222,5.8,11.9,63,0.00,,,0.00,VWS V14.00,2013-12-17 18:18:00,
2013-12-17 13:23:00,27.0,16.8,28.91,WSW,245,3.6,11.9,65,0.00,,,0.00,VWS V14.00,2013-12-17 18:23:00,
2013-12-17 13:28:00,27.0,17.1,28.91,South,175,4.0,11.9,66,0.00,,,0.00,VWS V14.00,2013-12-17 18:28:00,
2013-12-17 13:30:00,27.1,17.6,28.91,SW,218,3.6,11.9,67,0.00,,,0.00,VWS V14.00,2013-12-17 18:30:00,
2013-12-17 13:33:00,27.1,18.0,28.91,SSE,157,4.0,8.3,68,0.00,,,0.00,VWS V14.00,2013-12-17 18:33:00,
2013-12-17 13:38:00,27.5,18.3,28.91,SW,221,2.7,10.5,68,0.00,,,0.00,VWS V14.00,2013-12-17 18:38:00,
2013-12-17 13:43:00,27.5,18.7,28.91,SSW,211,3.1,10.5,69,0.00,,,0.00,VWS V14.00,2013-12-17 18:43:00,
2013-12-17 13:48:00,27.1,18.3,28.91,South,187,3.6,10.5,69,0.00,,,0.00,VWS V14.00,2013-12-17 18:48:00,
2013-12-17 13:53:00,27.7,18.5,28.91,South,190,8.3,10.5,68,0.00,,,0.00,VWS V14.00,2013-12-17 18:53:00,
2013-12-17 13:58:00,27.5,18.3,28.91,WSW,245,5.4,10.5,68,0.00,,,0.00,VWS V14.00,2013-12-17 18:58:00,
2013-12-17 14:00:00,27.7,18.5,28.91,SW,224,5.8,10.5,68,0.00,,,0.00,VWS V14.00,2013-12-17 19:00:00,
2013-12-17 14:03:00,28.2,19.0,28.88,SSW,196,3.6,5.8,68,0.00,,,0.00,VWS V14.00,2013-12-17 19:03:00,
2013-12-17 14:08:00,27.7,18.2,28.88,SSW,195,3.6,9.6,67,0.00,,,0.00,VWS V14.00,2013-12-17 19:08:00,
2013-12-17 14:13:00,27.9,18.3,28.88,SW,217,3.1,9.6,67,0.00,,,0.00,VWS V14.00,2013-12-17 19:13:00,
2013-12-17 14:18:00,28.0,18.5,28.88,SSW,197,3.1,9.6,67,0.00,,,0.00,VWS V14.00,2013-12-17 19:18:00,
2013-12-17 14:23:00,27.7,18.2,28.88,SW,231,3.1,9.6,67,0.00,,,0.00,VWS V14.00,2013-12-17 19:23:00,
2013-12-17 14:28:00,27.0,17.5,28.88,WSW,244,7.2,9.6,67,0.00,,,0.00,VWS V14.00,2013-12-17 19:28:00,
2013-12-17 14:30:00,27.0,17.5,28.91,WSW,248,2.7,9.6,67,0.00,,,0.00,VWS V14.00,2013-12-17 19:30:00,
2013-12-17 14:33:00,26.6,17.1,28.91,SW,226,4.9,7.2,67,0.00,,,0.00,VWS V14.00,2013-12-17 19:33:00,
2013-12-17 14:38:00,26.4,17.3,28.91,WSW,241,2.2,8.1,68,0.00,,,0.00,VWS V14.00,2013-12-17 19:38:00,
2013-12-17 14:43:00,26.2,17.5,28.91,SSW,211,0.0,8.1,69,0.00,,,0.00,VWS V14.00,2013-12-17 19:43:00,
2013-12-17 14:48:00,26.4,17.6,28.91,SW,215,2.2,8.1,69,0.00,,,0.00,VWS V14.00,2013-12-17 19:48:00,
2013-12-17 14:53:00,26.4,18.0,28.91,West,262,4.0,8.1,70,0.00,,,0.00,VWS V14.00,2013-12-17 19:53:00,
2013-12-17 14:58:00,26.2,17.8,28.91,SSW,202,2.7,8.1,70,0.00,,,0.00,VWS V14.00,2013-12-17 19:58:00,
2013-12-17 15:00:00,26.1,17.6,28.91,SSW,198,2.7,8.1,70,0.00,,,0.00,VWS V14.00,2013-12-17 20:00:00,
2013-12-17 15:03:00,26.1,18.0,28.91,SSW,206,5.4,5.4,71,0.00,,,0.00,VWS V14.00,2013-12-17 20:03:00,
2013-12-17 15:08:00,26.1,18.0,28.91,WSW,243,3.6,5.4,71,0.00,,,0.00,VWS V14.00,2013-12-17 20:08:00,
2013-12-17 15:13:00,26.1,18.0,28.91,SSW,207,0.0,6.3,71,0.00,,,0.00,VWS V14.00,2013-12-17 20:13:00,
2013-12-17 15:18:00,25.9,18.1,28.91,SSW,206,0.0,6.3,72,0.00,,,0.00,VWS V14.00,2013-12-17 20:18:00,
2013-12-17 15:23:00,25.9,18.1,28.91,SW,235,4.0,6.3,72,0.00,,,0.00,VWS V14.00,2013-12-17 20:23:00,
2013-12-17 15:28:00,26.1,18.3,28.91,SW,230,0.0,6.3,72,0.00,,,0.00,VWS V14.00,2013-12-17 20:28:00,
2013-12-17 15:30:00,26.1,18.3,28.91,West,268,2.7,6.3,72,0.00,,,0.00,VWS V14.00,2013-12-17 20:30:00,
2013-12-17 15:33:00,26.1,18.0,28.88,SW,222,6.3,6.3,71,0.00,,,0.00,VWS V14.00,2013-12-17 20:33:00,
2013-12-17 15:38:00,26.1,18.0,28.88,South,184,3.6,6.3,71,0.00,,,0.00,VWS V14.00,2013-12-17 20:38:00,
2013-12-17 15:43:00,25.7,17.6,28.88,West,272,4.0,6.3,71,0.00,,,0.00,VWS V14.00,2013-12-17 20:43:00,
2013-12-17 15:48:00,25.7,17.6,28.91,SW,225,0.0,6.3,71,0.00,,,0.00,VWS V14.00,2013-12-17 20:48:00,
2013-12-17 15:53:00,25.5,17.4,28.91,SW,233,3.6,6.3,71,0.00,,,0.00,VWS V14.00,2013-12-17 20:53:00,
2013-12-17 15:58:00,25.5,17.4,28.91,WSW,243,4.0,6.3,71,0.00,,,0.00,VWS V14.00,2013-12-17 20:58:00,
2013-12-17 16:00:00,25.5,17.4,28.91,SW,230,4.0,6.3,71,0.00,,,0.00,VWS V14.00,2013-12-17 21:00:00,
2013-12-17 16:03:00,25.5,17.4,28.91,SW,221,2.7,4.0,71,0.00,,,0.00,VWS V14.00,2013-12-17 21:03:00,
2013-12-17 16:08:00,25.5,17.4,28.91,West,260,5.8,5.8,71,0.00,,,0.00,VWS V14.00,2013-12-17 21:08:00,
2013-12-17 16:13:00,25.7,17.6,28.91,SSW,195,5.4,6.3,71,0.00,,,0.00,VWS V14.00,2013-12-17 21:13:00,
2013-12-17 16:18:00,25.5,17.4,28.91,SW,228,3.6,6.3,71,0.00,,,0.00,VWS V14.00,2013-12-17 21:18:00,
2013-12-17 16:23:00,25.3,17.3,28.91,WSW,252,2.7,6.3,71,0.00,,,0.00,VWS V14.00,2013-12-17 21:23:00,
2013-12-17 16:28:00,25.3,17.3,28.91,SSW,209,2.7,6.3,71,0.00,,,0.00,VWS V14.00,2013-12-17 21:28:00,
2013-12-17 16:30:00,25.3,17.3,28.91,SSW,208,2.7,6.3,71,0.00,,,0.00,VWS V14.00,2013-12-17 21:30:00,
2013-12-17 16:33:00,25.3,17.6,28.91,SW,236,6.3,7.6,72,0.00,,,0.00,VWS V14.00,2013-12-17 21:33:00,
2013-12-17 16:38:00,25.3,17.6,28.91,SW,235,3.1,8.1,72,0.00,,,0.00,VWS V14.00,2013-12-17 21:38:00,
2013-12-17 16:43:00,25.3,17.6,28.91,SW,227,2.7,8.1,72,0.00,,,0.00,VWS V14.00,2013-12-17 21:43:00,
2013-12-17 16:48:00,25.2,17.7,28.91,WSW,241,5.4,8.1,73,0.00,,,0.00,VWS V14.00,2013-12-17 21:48:00,
2013-12-17 16:53:00,25.2,17.7,28.91,SSE,161,5.4,8.7,73,0.00,,,0.00,VWS V14.00,2013-12-17 21:53:00,
2013-12-17 16:58:00,25.2,17.7,28.91,SSW,206,2.2,8.7,73,0.00,,,0.00,VWS V14.00,2013-12-17 21:58:00,
2013-12-17 17:00:00,25.2,17.7,28.91,WSW,251,2.7,8.7,73,0.00,,,0.00,VWS V14.00,2013-12-17 22:00:00,
2013-12-17 17:04:00,25.2,18.0,28.91,WSW,258,3.1,10.1,74,0.00,,,0.00,VWS V14.00,2013-12-17 22:04:00,
2013-12-17 17:09:00,25.2,18.0,28.91,West,261,4.0,10.1,74,0.00,,,0.00,VWS V14.00,2013-12-17 22:09:00,
2013-12-17 17:14:00,25.0,17.9,28.91,SW,222,4.9,10.1,74,0.00,,,0.00,VWS V14.00,2013-12-17 22:14:00,
2013-12-17 17:16:00,25.0,17.9,28.91,SSW,202,0.0,10.1,74,0.00,,,0.00,VWS V14.00,2013-12-17 22:16:00,
2013-12-17 17:21:00,25.0,18.2,28.91,South,186,8.1,11.9,75,0.00,,,0.00,VWS V14.00,2013-12-17 22:21:00,
2013-12-17 17:26:00,25.0,18.2,28.91,West,260,2.2,11.9,75,0.00,,,0.00,VWS V14.00,2013-12-17 22:26:00,
2013-12-17 17:30:00,25.0,18.2,28.91,South,180,2.7,11.9,75,0.00,,,0.00,VWS V14.00,2013-12-17 22:30:00,
2013-12-17 17:31:00,25.0,18.2,28.91,SSW,207,0.0,2.7,75,0.00,,,0.00,VWS V14.00,2013-12-17 22:31:00,
2013-12-17 17:36:00,24.8,18.3,28.91,WSW,241,0.0,8.1,76,0.00,,,0.00,VWS V14.00,2013-12-17 22:36:00,
2013-12-17 17:41:00,24.8,18.3,28.91,South,180,3.1,8.7,76,0.00,,,0.00,VWS V14.00,2013-12-17 22:41:00,
2013-12-17 17:46:00,24.8,18.3,28.91,WSW,255,0.0,8.7,76,0.00,,,0.00,VWS V14.00,2013-12-17 22:46:00,
2013-12-17 17:51:00,24.8,18.3,28.91,SSW,204,3.6,8.7,76,0.00,,,0.00,VWS V14.00,2013-12-17 22:51:00,
2013-12-17 17:56:00,24.8,18.6,28.91,SW,227,4.0,8.7,77,0.00,,,0.00,VWS V14.00,2013-12-17 22:56:00,
2013-12-17 18:00:00,24.8,18.6,28.91,WSW,243,4.0,8.7,77,0.00,,,0.00,VWS V14.00,2013-12-17 23:00:00,
2013-12-17 18:01:00,24.8,18.6,28.91,WSW,252,2.7,5.4,77,0.00,,,0.00,VWS V14.00,2013-12-17 23:01:00,
2013-12-17 18:06:00,24.8,18.6,28.91,SW,221,2.2,8.1,77,0.00,,,0.00,VWS V14.00,2013-12-17 23:06:00,
2013-12-17 18:11:00,24.8,18.6,28.91,SW,217,3.1,8.1,77,0.00,,,0.00,VWS V14.00,2013-12-17 23:11:00,
2013-12-17 18:16:00,24.8,18.6,28.91,SSW,209,0.0,8.1,77,0.00,,,0.00,VWS V14.00,2013-12-17 23:16:00,
2013-12-17 18:21:00,24.6,18.5,28.91,SSW,208,3.1,8.1,77,0.00,,,0.00,VWS V14.00,2013-12-17 23:21:00,
2013-12-17 18:26:00,24.8,18.9,28.91,WSW,256,6.3,8.1,78,0.00,,,0.00,VWS V14.00,2013-12-17 23:26:00,
2013-12-17 18:30:00,24.6,18.8,28.94,SW,222,3.6,8.1,78,0.00,,,0.00,VWS V14.00,2013-12-17 23:30:00,
2013-12-17 18:31:00,24.6,18.8,28.94,West,261,2.7,4.0,78,0.00,,,0.00,VWS V14.00,2013-12-17 23:31:00,
2013-12-17 18:36:00,24.8,18.9,28.94,SSE,162,5.4,6.7,78,0.00,,,0.00,VWS V14.00,2013-12-17 23:36:00,
2013-12-17 18:41:00,24.8,18.9,28.94,WSW,252,3.1,6.7,78,0.00,,,0.00,VWS V14.00,2013-12-17 23:41:00,
2013-12-17 18:46:00,24.8,19.2,28.94,West,270,0.0,8.1,79,0.00,,,0.00,VWS V14.00,2013-12-17 23:46:00,
2013-12-17 18:51:00,24.8,19.2,28.94,WSW,258,3.1,8.3,79,0.00,,,0.00,VWS V14.00,2013-12-17 23:51:00,
2013-12-17 18:56:00,24.8,19.2,28.94,WSW,245,4.0,8.3,79,0.00,,,0.00,VWS V14.00,2013-12-17 23:56:00,
2013-12-17 19:00:00,24.8,19.2,28.94,West,278,0.0,8.3,79,0.00,,,0.00,VWS V14.00,2013-12-18 00:00:00,
2013-12-17 19:01:00,24.8,19.2,28.94,West,278,2.2,4.0,79,0.00,,,0.00,VWS V14.00,2013-12-18 00:01:00,
2013-12-17 19:06:00,25.0,19.4,28.94,WSW,240,0.0,8.1,79,0.00,,,0.00,VWS V14.00,2013-12-18 00:06:00,
2013-12-17 19:11:00,25.0,19.4,28.94,WSW,255,5.4,8.1,79,0.00,,,0.00,VWS V14.00,2013-12-18 00:11:00,
2013-12-17 19:16:00,25.0,19.4,28.94,WSW,248,0.0,8.1,79,0.00,,,0.00,VWS V14.00,2013-12-18 00:16:00,
2013-12-17 19:21:00,25.2,19.6,28.94,WSW,252,0.0,8.1,79,0.00,,,0.00,VWS V14.00,2013-12-18 00:21:00,
2013-12-17 19:26:00,25.2,19.9,28.94,West,273,0.0,8.1,80,0.00,,,0.00,VWS V14.00,2013-12-18 00:26:00,
2013-12-17 19:30:00,25.3,20.0,28.94,WSW,257,2.7,8.1,80,0.00,,,0.00,VWS V14.00,2013-12-18 00:30:00,
2013-12-17 19:31:00,25.3,20.0,28.94,West,275,6.3,6.3,80,0.00,,,0.00,VWS V14.00,2013-12-18 00:31:00,
2013-12-17 19:36:00,25.5,20.2,28.94,WSW,244,4.9,8.3,80,0.00,,,0.00,VWS V14.00,2013-12-18 00:36:00,
2013-12-17 19:41:00,25.5,20.2,28.94,West,278,2.7,8.3,80,0.00,,,0.00,VWS V14.00,2013-12-18 00:41:00,
2013-12-17 19:46:00,25.7,20.7,28.94,WSW,241,7.2,9.6,81,0.00,,,0.00,VWS V14.00,2013-12-18 00:46:00,
2013-12-17 19:51:00,25.9,20.9,28.94,WSW,248,6.3,9.6,81,0.00,,,0.00,VWS V14.00,2013-12-18 00:51:00,
2013-12-17 19:56:00,25.9,20.6,28.94,West,268,10.1,10.1,80,0.00,,,0.00,VWS V14.00,2013-12-18 00:56:00,
2013-12-17 20:00:00,25.5,20.2,28.94,West,270,0.0,10.1,80,0.00,,,0.00,VWS V14.00,2013-12-18 01:00:00,
2013-12-17 20:01:00,25.3,20.0,28.97,WSW,241,8.3,8.3,80,0.00,,,0.00,VWS V14.00,2013-12-18 01:01:00,
2013-12-17 20:06:00,25.0,19.7,28.97,WNW,289,5.8,11.0,80,0.00,,,0.00,VWS V14.00,2013-12-18 01:06:00,
2013-12-17 20:11:00,24.8,19.8,28.97,West,275,4.9,11.0,81,0.00,,,0.00,VWS V14.00,2013-12-18 01:11:00,
2013-12-17 20:16:00,24.6,19.6,28.97,SW,228,0.0,11.0,81,0.00,,,0.00,VWS V14.00,2013-12-18 01:16:00,
2013-12-17 20:21:00,24.1,18.8,28.97,West,278,3.1,11.0,80,0.00,,,0.00,VWS V14.00,2013-12-18 01:21:00,
2013-12-17 20:26:00,24.3,19.3,28.97,WSW,255,4.0,11.0,81,0.00,,,0.00,VWS V14.00,2013-12-18 01:26:00,
2013-12-17 20:30:00,24.8,20.1,28.97,WSW,242,4.0,11.0,82,0.00,,,0.00,VWS V14.00,2013-12-18 01:30:00,
2013-12-17 20:31:00,25.0,20.0,28.97,WNW,291,0.0,4.0,81,0.00,,,0.00,VWS V14.00,2013-12-18 01:31:00,
2013-12-17 20:36:00,25.2,20.2,28.97,West,265,0.0,6.7,81,0.00,,,0.00,VWS V14.00,2013-12-18 01:36:00,
2013-12-17 20:42:00,24.8,20.1,28.97,WNW,297,0.0,6.7,82,0.00,,,0.00,VWS V14.00,2013-12-18 01:42:00,
2013-12-17 20:47:00,24.3,19.3,28.97,WSW,254,0.0,6.7,81,0.00,,,0.00,VWS V14.00,2013-12-18 01:47:00,
2013-12-17 20:52:00,24.1,19.1,28.97,WSW,258,3.6,6.7,81,0.00,,,0.00,VWS V14.00,2013-12-18 01:52:00,
2013-12-17 20:57:00,23.9,18.9,28.97,WNW,297,4.9,6.7,81,0.00,,,0.00,VWS V14.00,2013-12-18 01:57:00,
2013-12-17 21:00:00,23.7,18.8,28.97,West,279,0.0,6.7,81,0.00,,,0.00,VWS V14.00,2013-12-18 02:00:00,
2013-12-17 21:02:00,23.5,18.6,28.97,West,277,0.0,2.2,81,0.00,,,0.00,VWS V14.00,2013-12-18 02:02:00,
2013-12-17 21:07:00,23.5,18.9,28.97,West,263,2.7,6.3,82,0.00,,,0.00,VWS V14.00,2013-12-18 02:07:00,
2013-12-17 21:12:00,23.4,18.7,28.97,West,267,0.0,6.3,82,0.00,,,0.00,VWS V14.00,2013-12-18 02:12:00,
2013-12-17 21:17:00,23.0,18.6,28.97,West,262,8.1,8.1,83,0.00,,,0.00,VWS V14.00,2013-12-18 02:17:00,
2013-12-17 21:22:00,22.8,18.4,28.97,SW,231,3.1,8.1,83,0.00,,,0.00,VWS V14.00,2013-12-18 02:22:00,
2013-12-17 21:27:00,22.6,18.3,28.97,West,272,0.0,8.1,83,0.00,,,0.00,VWS V14.00,2013-12-18 02:27:00,
2013-12-17 21:30:00,22.5,18.1,28.97,West,271,0.0,8.1,83,0.00,,,0.00,VWS V14.00,2013-12-18 02:30:00,
2013-12-17 21:32:00,22.1,17.7,28.97,WSW,249,0.0,0.0,83,0.00,,,0.00,VWS V14.00,2013-12-18 02:32:00,
2013-12-17 21:37:00,22.5,18.6,28.97,WSW,250,2.7,8.3,85,0.00,,,0.00,VWS V14.00,2013-12-18 02:37:00,
2013-12-17 21:42:00,22.3,18.5,28.97,WSW,248,2.7,8.3,85,0.00,,,0.00,VWS V14.00,2013-12-18 02:42:00,
2013-12-17 21:47:00,22.3,18.7,29.00,West,271,4.0,8.3,86,0.00,,,0.00,VWS V14.00,2013-12-18 02:47:00,
2013-12-17 21:52:00,22.1,18.6,29.00,West,273,0.0,8.3,86,0.00,,,0.00,VWS V14.00,2013-12-18 02:52:00,
2013-12-17 21:57:00,21.6,18.0,29.00,SW,224,0.0,8.3,86,0.00,,,0.00,VWS V14.00,2013-12-18 02:57:00,
2013-12-17 22:00:00,21.4,17.6,29.00,WSW,253,0.0,8.3,85,0.00,,,0.00,VWS V14.00,2013-12-18 03:00:00,
2013-12-17 22:02:00,21.2,17.7,29.00,WSW,253,0.0,0.0,86,0.00,,,0.00,VWS V14.00,2013-12-18 03:02:00,
2013-12-17 22:07:00,21.0,17.5,29.00,SW,230,0.0,5.4,86,0.00,,,0.00,VWS V14.00,2013-12-18 03:07:00,
2013-12-17 22:12:00,20.8,17.3,29.00,West,265,0.0,5.4,86,0.00,,,0.00,VWS V14.00,2013-12-18 03:12:00,
2013-12-17 22:17:00,20.5,17.0,29.00,West,266,0.0,5.4,86,0.00,,,0.00,VWS V14.00,2013-12-18 03:17:00,
2013-12-17 22:22:00,20.1,16.6,29.00,West,265,0.0,5.4,86,0.00,,,0.00,VWS V14.00,2013-12-18 03:22:00,
2013-12-17 22:27:00,19.4,15.6,29.00,West,265,0.0,5.4,85,0.00,,,0.00,VWS V14.00,2013-12-18 03:27:00,
2013-12-17 22:30:00,19.2,15.5,29.00,West,265,0.0,5.4,85,0.00,,,0.00,VWS V14.00,2013-12-18 03:30:00,
2013-12-17 22:32:00,19.0,15.3,29.00,West,266,0.0,0.0,85,0.00,,,0.00,VWS V14.00,2013-12-18 03:32:00,
2013-12-17 22:37:00,19.4,15.6,29.00,West,265,0.0,0.0,85,0.00,,,0.00,VWS V14.00,2013-12-18 03:37:00,
2013-12-17 22:42:00,19.8,16.3,29.00,West,265,0.0,0.0,86,0.00,,,0.00,VWS V14.00,2013-12-18 03:42:00,
2013-12-17 22:47:00,19.9,16.4,29.00,West,265,0.0,0.0,86,0.00,,,0.00,VWS V14.00,2013-12-18 03:47:00,
2013-12-17 22:52:00,19.9,16.7,29.00,West,266,0.0,0.0,87,0.00,,,0.00,VWS V14.00,2013-12-18 03:52:00,
2013-12-17 22:57:00,19.9,16.7,29.00,West,265,0.0,0.0,87,0.00,,,0.00,VWS V14.00,2013-12-18 03:57:00,
2013-12-17 23:00:00,19.9,16.7,29.00,West,265,0.0,0.0,87,0.00,,,0.00,VWS V14.00,2013-12-18 04:00:00,
2013-12-17 23:02:00,19.9,16.7,29.00,West,265,0.0,0.0,87,0.00,,,0.00,VWS V14.00,2013-12-18 04:02:00,
2013-12-17 23:07:00,19.9,17.0,29.00,West,265,0.0,0.0,88,0.00,,,0.00,VWS V14.00,2013-12-18 04:07:00,
2013-12-17 23:12:00,20.1,17.1,29.00,West,265,0.0,0.0,88,0.00,,,0.00,VWS V14.00,2013-12-18 04:12:00,
2013-12-17 23:17:00,20.1,17.1,29.00,West,265,0.0,0.0,88,0.00,,,0.00,VWS V14.00,2013-12-18 04:17:00,
2013-12-17 23:22:00,20.3,17.3,29.00,West,265,0.0,0.0,88,0.00,,,0.00,VWS V14.00,2013-12-18 04:22:00,
2013-12-17 23:27:00,20.5,17.8,29.00,West,265,0.0,0.0,89,0.00,,,0.00,VWS V14.00,2013-12-18 04:27:00,
2013-12-17 23:30:00,20.5,17.8,29.00,West,266,0.0,0.0,89,0.00,,,0.00,VWS V14.00,2013-12-18 04:30:00,
2013-12-17 23:32:00,20.7,17.9,29.00,West,265,0.0,0.0,89,0.00,,,0.00,VWS V14.00,2013-12-18 04:32:00,
2013-12-17 23:37:00,20.8,18.4,29.00,West,266,0.0,0.0,90,0.00,,,0.00,VWS V14.00,2013-12-18 04:37:00,
2013-12-17 23:42:00,21.0,18.5,29.00,West,266,0.0,0.0,90,0.00,,,0.00,VWS V14.00,2013-12-18 04:42:00,
2013-12-17 23:47:00,21.0,18.5,29.00,West,265,0.0,0.0,90,0.00,,,0.00,VWS V14.00,2013-12-18 04:47:00,
2013-12-17 23:52:00,21.0,18.5,29.00,West,265,0.0,0.0,90,0.00,,,0.00,VWS V14.00,2013-12-18 04:52:00,
2013-12-17 23:57:00,21.0,18.5,29.00,West,265,0.0,0.0,90,0.00,,,0.00,VWS V14.00,2013-12-18 04:57:00,